sat.trackr.live / text

‹ back to catalog

STARLINK-31720

NORAD 59497 · 2024-071P

PAYLOAD ACTIVE UNKNOWN

§ Identity

Operator
Country
US
Launch date
2024-04-13
Launch site
AFETR
Launch vehicle
Mass (kg)
RCS (m²)

Purposes: comms

External: N2YO · Heavens-Above · Gunter

§ Orbital elements

Epoch: 2026-09-21T11:30:01.833696Z

Period
94.27 min
Inclination
43.0027°
Eccentricity
0.0001459
Mean motion
15.27574624 rev/d
Perigee alt
482.1 km
Apogee alt
484.1 km
Semi-major
6,861.2 km
B*
5.0587e-6
RAAN
314.4984°
Arg perigee
256.0395°
Mean anomaly
104.0295°
Rev number
13,814

§ Raw data

STARLINK-317201 59497U 24071P   26264.47918789 -.00000123  00000+0  50587-5 0  99972 59497  43.0027 314.4984 0001459 256.0395 104.0295 15.27574624138145

JSON: /api/v1/satellites/59497 · /tle

For live sub-satellite position, see the globe view (requires WebGL).

§ Visibility from observer

Set your observer location to see the next 7 days of passes ≥ 10°. The values pass through the URL so the page stays shareable.

No JS? Fill the form by hand. The geolocation button needs JavaScript.